Wetbulb
44.34 44.01 44.09 43.93 43.83 44.14 44.87 45.29 45.60 45.92 45.87 45.90 45.75 45.62 45.29 44.24 43.02 38.94 36.13 36.91 35.46 31.45 32.48 35.41 34.51 30.82 30.07 29.39 26.52 28.81 29.84 29.67 29.26 26.28 27.02 26.13 24.62 27.24 26.77 26.10 25.16 23.12 21.73 21.97 24.31 21.18 18.41 24.88 27.18 24.36 24.69 25.10 23.22 21.92
44.21 43.89 43.57 43.44 44.23 44.33 44.52 44.87 45.15 45.34 45.60 45.53 45.61 45.66 45.31 44.43 43.34 39.99 35.48 37.43 37.19 34.23 33.15 35.47 35.80 36.02 34.79 33.40 32.01 31.66 29.58 29.80 30.96 28.33 28.63 28.77 25.93 27.86 25.11 21.85 28.12 23.01 23.68 21.47 20.81 20.12 24.20 26.20 26.04 28.23 27.65 24.26 23.14 22.37
43.64 43.18 43.86 44.06 43.85 44.20 44.53 44.71 44.62 45.14 45.43 45.57 45.45 45.20 44.64 44.22 43.22 39.94 35.89 35.98 36.01 33.05 32.56 33.49 33.08 37.29 38.58 37.60 38.20 31.55 32.95 33.70 32.15 33.86 32.66 31.01 26.51 31.00 24.46 23.42 25.09 26.97 28.17 22.45 22.14 22.78 23.32 24.59 26.12 26.45 26.49 24.29 24.30 23.81
43.55 43.68 44.02 44.05 43.99 44.25 44.37 44.53 44.60 44.90 45.02 45.15 45.24 45.13 44.86 44.36 43.68 41.03 36.76 36.60 34.97 32.81 28.60 31.32 37.23 35.65 38.93 39.17 37.63 36.65 35.38 34.81 34.63 34.50 32.21 31.67 28.25 33.13 26.20 26.14 24.57 26.16 27.07 23.75 21.35 23.13 23.67 23.95 25.48 25.30 24.54 24.27 23.27 22.93
43.01 43.82 43.75 43.59 43.81 44.00 44.21 44.23 44.22 44.22 44.66 44.82 44.92 44.67 44.34 43.80 43.17 40.75 38.73 38.02 36.85 33.90 28.86 29.56 33.83 36.23 38.22 38.32 36.75 36.51 35.55 33.41 32.46 31.13 31.20 30.25 32.74 30.30 27.78 26.86 23.91 28.29 24.39 21.73 22.16 24.56 24.16 22.92 25.43 25.69 23.57 22.92 23.15 22.38
43.45 43.64 43.72 43.60 43.64 43.83 43.91 43.97 43.92 43.99 44.19 44.30 43.99 43.93 43.40 42.78 39.32 36.12 31.49 37.63 39.91 35.17 31.77 26.85 32.53 34.52 36.68 37.32 36.58 35.68 34.81 32.85 32.64 31.94 30.83 33.19 35.99 31.34 24.45 23.31 26.07 26.57 29.20 28.28 24.31 26.49 25.23 25.50 25.53 25.68 24.10 24.40 24.05 22.92
43.51 43.69 43.52 43.48 43.58 43.55 43.56 43.58 43.60 43.97 44.22 44.43 44.29 44.21 43.83 43.42 40.80 35.18 32.16 37.91 40.94 36.69 31.55 27.51 29.48 33.38 36.21 35.35 34.09 33.87 33.92 32.74 33.53 31.79 31.37 33.98 32.59 29.72 23.82 23.02 25.75 26.58 27.21 26.75 27.15 26.05 23.61 24.98 23.19 25.50 24.87 24.79 23.94 22.27
43.55 43.52 43.58 43.37 43.42 43.35 43.34 43.34 43.64 43.81 43.94 44.05 43.28 43.15 42.74 42.42 40.12 37.09 39.70 41.56 38.60 32.72 31.29 25.70 27.76 32.11 36.05 31.61 31.54 32.90 32.43 32.84 31.57 30.71 31.94 32.35 31.12 28.26 23.82 23.15 25.14 26.27 26.29 26.71 27.01 27.84 26.39 26.01 25.50 24.41 23.83 22.35 20.39 18.94
43.09 43.12 43.20 43.15 43.33 43.25 43.13 43.45 43.67 43.70 43.60 42.24 41.38 40.41 37.58 35.54 34.06 36.70 42.40 39.16 37.60 34.00 26.72 25.80 26.21 24.83 33.92 31.20 32.14 32.48 31.95 28.83 31.35 30.00 30.83 32.21 29.24 25.46 24.06 25.01 24.44 25.14 25.54 25.84 25.89 25.27 24.98 24.05 23.03 22.57 22.32 21.58 20.16 18.98
42.81 42.74 43.14 43.11 43.00 43.02 43.00 43.56 43.72 42.84 41.64 40.76 37.66 31.78 29.13 36.17 41.23 40.02 34.38 29.63 29.76 30.36 30.93 26.47 27.63 28.27 32.69 29.25 29.76 30.25 29.96 28.65 27.20 30.68 32.38 29.29 27.30 27.56 28.06 28.75 27.59 27.24 27.67 26.94 23.98 22.29 23.57 22.77 22.21 21.79 21.65 22.13 21.55 19.72
42.82 42.85 42.81 43.02 43.02 43.09 43.28 43.33 41.79 41.01 39.80 35.64 33.73 33.08 39.02 42.28 35.83 31.28 24.74 25.06 26.57 25.19 28.17 27.45 28.71 29.55 32.81 28.70 29.46 30.26 28.15 28.28 24.04 28.27 28.79 26.76 25.06 25.98 27.61 28.78 29.69 29.51 28.10 27.79 28.00 27.41 26.85 25.16 23.04 21.89 21.13 20.76 19.90 18.55
42.54 42.73 42.79 42.97 43.02 43.18 42.54 41.30 40.57 37.36 35.49 37.71 36.98 40.12 37.77 34.20 29.36 24.30 23.64 25.24 25.53 23.81 26.65 27.57 28.23 30.13 31.66 33.08 31.03 29.37 25.79 26.33 21.71 31.24 28.68 24.63 25.07 27.06 27.82 28.48 28.79 28.26 28.10 28.03 28.32 26.46 25.76 24.92 24.02 22.17 20.41 18.99 17.27 15.00
42.67 42.55 42.42 42.70 42.65 42.25 42.79 42.84 42.51 42.24 41.00 37.93 34.76 32.42 29.18 28.38 20.19 16.61 14.72 22.17 22.22 25.95 27.19 28.10 27.22 30.15 30.73 30.88 27.25 26.87 22.15 21.76 28.94 25.52 25.00 24.94 26.76 28.41 28.64 29.46 28.93 29.06 28.85 27.17 26.30 25.92 24.77 22.57 21.18 18.94 15.08 12.21 10.77 8.83
42.47 42.34 42.13 42.35 42.52 42.32 42.07 41.46 41.53 39.90 35.61 31.57 26.63 22.16 20.19 21.24 22.24 21.02 22.29 21.77 25.31 25.75 27.41 28.42 27.85 29.55 28.07 27.20 23.25 21.91 23.34 26.66 20.57 19.25 21.72 25.30 27.08 28.08 28.28 28.33 27.14 26.10 25.19 24.29 22.88 21.69 18.88 15.82 12.42 11.45 10.47 8.50 6.87 5.57
41.86 41.21 41.05 41.70 41.96 41.34 40.73 40.12 39.30 36.03 32.04 28.55 27.81 21.95 23.15 26.15 28.19 28.30 28.92 30.36 29.69 27.46 28.65 29.33 29.02 29.81 26.00 24.20 25.82 22.74 21.73 19.10 20.18 21.72 23.99 24.34 27.23 26.18 25.45 25.87 24.55 22.77 21.19 20.53 19.93 17.43 14.05 12.06 10.73 6.20 5.80 7.16 7.37 4.36
41.28 40.26 38.97 41.51 40.79 39.72 38.24 36.60 34.97 34.10 29.98 28.55 28.48 27.06 27.83 27.97 29.01 31.29 31.46 30.53 31.42 31.04 28.91 30.52 28.31 23.82 22.87 22.81 23.82 18.74 19.73 18.75 23.61 23.34 26.52 21.53 24.18 24.69 24.24 23.75 22.40 20.75 20.19 17.46 15.68 14.30 11.86 10.31 10.31 8.20 5.33 6.74 5.46 6.68
38.98 36.44 40.55 39.93 39.04 38.15 37.92 32.04 30.52 28.00 27.34 26.87 26.01 27.78 31.08 29.95 28.89 30.38 31.83 31.52 32.81 30.14 26.27 27.07 19.61 20.65 26.15 21.74 21.34 23.03 22.34 24.64 22.86 26.65 25.75 21.98 22.60 21.83 21.55 20.53 19.40 17.90 16.14 14.63 12.90 12.50 10.06 8.88 8.29 9.41 9.99 8.34 8.69 10.15
34.96 39.39 40.31 38.82 34.70 32.21 29.16 30.03 29.39 27.31 25.38 26.21 25.19 28.14 29.99 31.56 30.08 30.09 31.30 32.39 32.52 30.72 29.66 26.52 27.88 25.02 21.90 19.70 22.45 23.94 25.59 27.24 25.15 25.25 26.16 24.33 21.62 19.52 21.18 19.82 18.44 18.02 15.73 13.80 13.03 10.92 9.44 10.16 12.26 14.03 14.52 13.11 13.45 13.97
38.02 38.29 38.73 37.99 33.31 27.37 23.69 25.97 28.98 23.17 26.25 27.90 28.18 29.08 29.72 29.99 30.78 30.96 31.25 31.99 32.92 32.70 29.85 28.94 25.85 23.56 24.22 23.69 25.91 25.30 22.64 26.17 24.87 22.91 21.19 22.81 22.72 18.86 17.54 17.61 16.80 16.32 14.94 13.58 13.89 14.15 14.28 15.39 16.89 16.95 16.98 16.73 16.38 17.02
39.74 39.35 39.14 38.19 35.21 27.38 24.72 25.16 31.02 27.84 23.94 26.94 29.26 28.37 28.30 28.47 29.32 30.34 30.60 30.97 31.56 31.48 27.85 25.07 24.08 25.26 25.62 26.67 25.50 27.79 25.32 23.27 23.49 21.78 20.92 19.45 20.71 18.77 18.16 18.68 18.51 17.36 16.19 16.47 16.57 15.80 15.95 16.81 17.52 18.08 18.65 18.22 18.25 18.75
37.86 37.20 37.16 32.88 29.47 28.13 26.82 26.48 25.94 27.50 28.84 26.44 28.73 28.19 26.69 28.98 28.10 28.41 29.06 30.89 30.19 26.56 24.89 24.92 23.90 23.19 21.89 23.71 25.76 23.96 22.98 24.19 23.98 25.15 23.65 19.09 19.16 19.53 18.47 18.80 18.37 17.91 17.35 17.06 16.37 15.92 16.34 18.00 18.63 18.88 18.39 18.57 17.24 17.90
35.69 36.47 29.97 30.76 27.28 26.56 25.78 30.23 29.47 29.17 28.00 28.26 27.97 27.84 23.90 21.37 25.55 27.12 28.94 24.36 25.49 25.03 25.25 24.93 25.22 23.89 24.50 25.49 25.24 25.74 24.21 24.01 21.59 19.35 17.93 18.92 18.31 18.24 17.99 18.20 17.98 17.01 17.40 17.29 17.88 16.88 17.82 18.49 18.81 18.08 17.03 13.55 12.76 14.31
35.38 31.27 27.16 26.73 19.40 16.94 19.26 30.74 26.26 27.29 23.10 25.59 27.48 23.58 20.44 17.90 21.39 27.49 21.23 23.82 23.48 23.00 22.97 24.75 25.89 27.12 25.33 24.87 24.98 24.93 25.08 23.63 22.04 20.92 19.68 20.48 20.31 19.68 18.90 18.66 18.95 17.09 16.26 16.93 18.71 17.80 17.84 15.53 13.82 14.78 13.10 13.57 13.71 10.85
33.52 24.22 15.53 18.24 19.28 13.37 22.47 20.19 27.85 25.24 25.06 22.90 21.61 17.30 17.93 22.80 27.05 21.21 20.13 21.58 22.29 19.79 22.73 22.70 24.45 24.03 24.22 23.94 22.73 22.50 22.82 22.59 20.12 18.39 20.29 19.99 18.80 18.66 19.40 18.73 18.59 19.18 19.89 18.47 18.59 17.81 16.19 16.61 12.98 13.64 13.06 12.04 10.64 10.96
22.30 18.63 14.13 7.10 22.87 18.85 19.40 14.96 19.63 19.57 13.44 18.47 17.23 12.97 20.65 25.93 18.66 17.70 18.78 19.74 18.77 23.17 20.24 20.64 22.71 23.10 25.77 25.23 23.37 22.36 21.20 22.25 20.90 19.38 19.09 20.52 19.43 19.03 18.32 18.44 18.14 18.80 19.18 17.39 15.52 15.34 13.97 13.63 13.50 12.73 11.92 11.38 9.33 7.52
8.36 9.45 13.94 12.50 19.39 18.49 18.73 16.86 17.18 12.92 11.09 11.02 14.90 16.99 19.55 19.93 18.25 14.27 18.58 16.39 20.37 25.07 19.74 21.62 24.44 25.00 24.80 24.78 23.82 22.39 22.10 22.52 21.47 19.70 19.56 21.06 20.64 19.45 17.80 16.82 16.87 17.43 18.15 20.49 17.19 15.19 13.53 13.08 12.06 9.94 8.08 5.74 2.21 4.33
8.94 10.36 19.01 22.97 23.72 21.14 14.68 12.82 19.68 14.97 12.36 11.80 13.43 17.23 13.65 13.62 14.85 16.76 17.10 17.38 18.57 22.54 24.00 25.85 26.15 26.72 25.74 23.35 21.81 21.19 21.51 21.01 20.61 19.47 18.71 18.47 18.76 20.57 21.06 19.14 18.44 19.82 17.73 19.29 18.05 16.86 14.12 12.78 10.82 8.40 3.78 2.19 3.37 6.16
18.43 17.74 16.10 16.61 22.78 22.05 15.58 9.35 9.07 12.33 15.49 20.44 17.89 15.22 12.31 13.45 15.96 18.07 17.72 17.27 17.68 21.81 22.53 21.61 21.46 23.36 23.43 20.34 17.76 17.19 15.98 16.47 16.08 16.38 16.97 15.79 13.61 13.59 13.83 14.92 16.52 17.38 17.77 18.02 16.81 15.65 14.26 11.84 7.76 5.55 5.73 3.44 -0.58 -0.52
19.87 16.30 19.13 15.98 17.28 18.88 19.37 20.09 17.87 17.79 18.17 19.24 17.21 15.47 15.77 16.44 13.32 12.82 13.92 15.16 15.08 22.45 19.37 18.43 17.73 17.68 16.84 17.27 17.63 18.40 19.06 20.12 19.60 16.47 15.03 14.23 15.16 12.89 11.94 12.69 12.89 13.22 13.74 13.12 13.05 11.19 9.63 8.44 6.59 4.42 1.42 -1.79 -5.48 -6.85
14.58 14.00 11.74 9.23 12.63 17.67 19.75 16.11 18.33 17.38 17.72 18.09 17.04 15.35 14.28 12.87 11.18 8.32 10.94 12.75 15.80 19.00 19.29 19.81 18.38 18.50 14.22 14.65 14.78 16.29 17.50 19.51 20.69 21.12 17.52 15.60 15.69 11.12 12.81 13.18 13.40 13.53 13.93 12.19 9.12 6.75 6.51 1.93 1.16 -2.51 -4.70 -5.94 -5.67 -7.66
17.33 14.51 8.61 8.51 10.34 9.30 9.19 6.48 5.94 8.26 7.33 9.34 9.36 13.89 11.55 8.49 9.33 7.88 9.37 8.57 8.02 8.68 13.05 13.32 14.60 17.25 15.54 15.39 16.22 16.48 16.08 16.29 17.49 17.01 15.75 13.51 12.61 12.02 11.42 10.87 11.35 10.76 8.92 6.94 5.14 3.73 1.48 0.05 -1.37 -3.46 -5.10 -7.97 -10.87 -10.08
17.66 16.49 11.87 8.80 7.72 8.18 9.27 8.61 9.18 9.65 5.87 4.56 5.64 0.02 4.53 6.80 10.05 8.11 9.47 8.84 11.70 13.10 10.69 11.86 13.66 14.14 16.25 18.56 18.24 17.34 16.20 13.93 13.37 13.17 13.28 12.53 11.27 10.17 9.49 9.15 9.01 7.97 6.03 4.35 3.10 1.53 0.25 -1.49 -3.20 -4.68 -7.50 -10.36 -12.31 -13.23
13.23 12.59 13.91 13.70 10.39 10.35 11.43 14.30 12.61 9.55 4.04 3.28 3.06 0.54 1.83 6.68 10.07 6.63 7.61 8.19 9.56 12.15 11.40 11.22 11.96 13.02 13.52 13.84 13.78 13.64 13.66 14.12 14.19 14.44 12.61 11.53 9.99 9.46 8.42 7.87 7.08 5.47 3.51 1.88 0.24 -1.25 -3.03 -4.79 -6.99 -8.80 -11.08 -13.35 -14.91 -15.45
MSLP
996.11 996.45 996.68 997.06 997.46 997.77 998.33 999.01 999.79 1000.54 1001.35 1002.21 1003.01 1003.70 1004.36 1004.73 1004.86 1005.21 1007.53 1007.43 1007.42 1009.98 1011.48 1011.31 1011.61 1012.43 1013.01 1013.46 1014.12 1014.98 1015.29 1015.40 1015.45 1015.23 1015.01 1014.99 1014.80 1014.84 1014.84 1015.47 1015.69 1016.09 1016.46 1016.69 1017.00 1017.78 1019.44 1020.16 1020.01 1020.46 1021.53 1022.48 1023.35 1024.25
997.22 997.70 998.17 998.51 998.85 999.41 999.98 1000.41 1000.95 1001.58 1002.21 1002.86 1003.49 1004.08 1004.41 1004.78 1005.08 1005.42 1007.54 1008.00 1007.90 1009.60 1011.97 1012.25 1012.31 1012.57 1012.55 1012.89 1013.69 1014.62 1014.80 1014.99 1015.11 1015.18 1015.15 1015.13 1015.05 1015.03 1015.35 1015.77 1016.38 1016.99 1017.50 1017.68 1018.98 1019.62 1020.58 1021.08 1021.18 1021.65 1022.09 1023.06 1024.23 1024.92
998.62 999.06 999.47 999.90 1000.41 1000.89 1001.32 1001.77 1002.23 1002.69 1003.26 1003.67 1004.08 1004.53 1004.95 1005.25 1005.56 1005.72 1007.79 1008.46 1008.62 1010.85 1012.13 1012.54 1013.09 1013.07 1012.78 1012.90 1012.98 1013.68 1014.75 1014.83 1014.99 1014.95 1014.79 1015.08 1015.24 1015.40 1015.73 1016.50 1017.01 1017.73 1018.06 1018.58 1019.71 1020.88 1021.48 1022.09 1022.58 1022.87 1023.29 1023.94 1024.88 1025.74
999.64 1000.01 1000.51 1001.08 1001.61 1002.15 1002.61 1002.97 1003.34 1003.76 1004.19 1004.53 1004.94 1005.17 1005.57 1005.95 1006.14 1006.43 1008.03 1008.95 1009.01 1010.62 1012.59 1013.70 1013.13 1013.16 1013.20 1013.06 1013.20 1013.42 1014.02 1014.64 1014.84 1014.88 1014.91 1015.02 1015.33 1015.80 1016.57 1017.11 1017.71 1018.54 1018.77 1019.43 1020.54 1021.45 1022.25 1022.97 1023.34 1023.84 1024.36 1024.94 1025.58 1026.46
1000.77 1001.13 1001.66 1002.20 1002.75 1003.17 1003.58 1003.96 1004.35 1004.79 1005.18 1005.46 1005.74 1006.04 1006.57 1006.80 1006.98 1007.47 1008.43 1009.45 1009.47 1010.13 1012.33 1013.51 1013.45 1013.56 1013.39 1013.47 1013.76 1013.98 1014.23 1014.65 1014.91 1015.01 1015.08 1015.39 1015.74 1016.29 1017.18 1017.61 1018.37 1018.88 1019.30 1019.86 1020.09 1020.58 1021.55 1022.86 1023.83 1024.44 1024.91 1025.55 1026.10 1026.59
1001.90 1002.25 1002.75 1003.24 1003.64 1004.08 1004.54 1004.99 1005.32 1005.70 1006.02 1006.38 1006.60 1006.97 1007.23 1007.37 1007.64 1007.93 1009.56 1009.85 1009.87 1010.05 1011.62 1013.53 1014.32 1014.02 1013.81 1013.82 1014.10 1014.39 1014.53 1014.78 1014.95 1015.16 1015.55 1015.65 1015.84 1016.41 1017.38 1018.12 1018.93 1019.52 1019.81 1020.09 1020.72 1021.28 1021.95 1023.09 1024.23 1024.96 1025.41 1025.94 1026.51 1026.95
1002.94 1003.37 1003.79 1004.19 1004.63 1005.02 1005.49 1005.87 1006.18 1006.59 1006.91 1007.12 1007.38 1007.56 1007.85 1007.94 1008.05 1009.54 1010.50 1010.76 1010.30 1010.53 1011.80 1013.84 1014.32 1014.28 1014.09 1014.26 1014.73 1014.86 1014.97 1015.16 1015.19 1015.53 1015.65 1015.67 1016.05 1016.57 1017.65 1018.44 1019.22 1019.88 1020.36 1020.78 1021.41 1021.99 1023.18 1023.76 1024.23 1025.05 1025.75 1026.37 1027.00 1027.53
1003.99 1004.37 1004.78 1005.21 1005.58 1006.01 1006.44 1006.73 1007.01 1007.29 1007.64 1007.89 1008.01 1008.41 1008.57 1008.78 1009.28 1010.29 1010.90 1010.61 1010.62 1011.36 1012.28 1013.99 1014.71 1014.56 1014.49 1014.80 1015.23 1015.44 1015.36 1015.42 1015.67 1015.85 1015.92 1015.88 1016.44 1016.91 1017.85 1018.90 1019.60 1020.19 1020.88 1021.39 1021.93 1021.99 1022.49 1023.58 1024.51 1025.34 1026.11 1026.62 1027.14 1027.81
1004.90 1005.21 1005.55 1006.02 1006.45 1006.89 1007.25 1007.49 1007.79 1008.04 1008.30 1008.51 1008.85 1008.98 1009.24 1010.06 1011.11 1011.67 1011.27 1011.12 1011.16 1012.03 1013.26 1014.18 1014.69 1014.97 1014.90 1015.33 1015.48 1015.71 1015.68 1015.85 1016.21 1015.92 1015.93 1016.19 1016.58 1017.19 1017.75 1018.66 1019.63 1020.18 1020.50 1021.32 1022.17 1022.54 1023.18 1023.92 1024.81 1025.55 1026.14 1026.72 1027.24 1028.02
1005.76 1006.10 1006.52 1007.00 1007.36 1007.65 1007.94 1008.28 1008.53 1008.82 1009.03 1009.12 1009.25 1009.85 1011.25 1011.89 1011.76 1011.55 1011.74 1012.00 1012.44 1013.43 1013.95 1014.84 1015.24 1015.00 1015.29 1015.57 1015.77 1015.99 1016.03 1016.09 1016.00 1016.14 1016.06 1016.24 1016.70 1017.50 1018.05 1018.65 1019.44 1020.11 1020.56 1021.17 1021.83 1022.66 1023.27 1024.10 1024.85 1025.66 1026.27 1026.85 1027.65 1028.61
1006.60 1006.95 1007.41 1007.80 1008.15 1008.52 1008.84 1009.10 1009.31 1009.39 1009.45 1010.05 1010.72 1011.42 1012.02 1011.80 1011.95 1012.36 1013.25 1013.76 1014.32 1014.79 1014.91 1015.35 1015.28 1015.20 1015.47 1015.49 1015.61 1016.09 1016.13 1016.20 1016.12 1016.17 1016.26 1016.50 1016.94 1017.61 1018.41 1019.01 1019.63 1020.17 1020.77 1021.27 1021.60 1022.24 1023.14 1023.96 1024.72 1025.74 1026.72 1027.58 1028.44 1029.40
1007.53 1007.90 1008.31 1008.68 1009.02 1009.31 1009.57 1009.79 1009.87 1010.17 1010.71 1010.76 1010.86 1011.69 1011.99 1012.25 1012.72 1013.46 1014.60 1014.94 1014.90 1015.31 1015.49 1015.50 1015.44 1015.38 1015.63 1015.49 1015.65 1016.29 1016.25 1016.56 1016.37 1016.34 1016.39 1016.53 1017.15 1017.88 1018.59 1019.27 1019.92 1020.51 1021.04 1021.52 1022.03 1022.77 1023.69 1024.45 1025.33 1026.30 1027.51 1028.23 1029.31 1030.33
1008.38 1008.79 1009.15 1009.46 1009.75 1010.05 1010.28 1010.42 1010.47 1010.67 1010.79 1011.07 1011.41 1012.33 1012.79 1013.55 1013.90 1014.40 1015.10 1015.37 1015.45 1015.45 1015.46 1015.52 1015.71 1015.65 1015.81 1015.78 1016.22 1016.34 1016.65 1016.88 1016.72 1016.67 1016.56 1016.92 1017.54 1018.31 1019.00 1019.65 1020.34 1020.92 1021.47 1022.12 1022.86 1023.63 1024.49 1025.38 1026.21 1027.28 1028.23 1029.23 1030.23 1031.19
1009.21 1009.63 1010.00 1010.34 1010.61 1010.88 1011.02 1011.06 1011.01 1011.11 1011.42 1011.98 1012.52 1013.47 1014.00 1014.40 1014.52 1014.77 1014.92 1015.08 1015.24 1015.30 1015.36 1015.37 1015.76 1015.71 1016.15 1016.23 1016.88 1016.98 1017.33 1017.15 1017.30 1017.38 1017.22 1017.39 1017.90 1018.62 1019.39 1020.10 1020.78 1021.49 1022.17 1022.90 1023.75 1024.63 1025.55 1026.45 1027.49 1028.46 1029.02 1029.95 1030.86 1031.65
1010.03 1010.47 1010.80 1011.17 1011.33 1011.46 1011.56 1011.60 1011.60 1011.89 1012.62 1013.12 1013.26 1014.19 1014.63 1014.77 1014.74 1014.72 1014.86 1014.99 1015.25 1015.35 1015.32 1015.49 1015.87 1015.94 1016.51 1016.78 1016.98 1017.41 1017.67 1017.64 1017.73 1017.50 1017.67 1017.98 1018.46 1019.19 1019.99 1020.65 1021.31 1022.11 1023.03 1023.84 1024.66 1025.54 1026.50 1027.33 1028.16 1029.29 1030.16 1030.65 1031.23 1032.11
1010.89 1011.25 1011.78 1011.84 1011.98 1012.07 1012.05 1012.07 1012.32 1012.76 1013.58 1013.94 1014.24 1014.67 1014.83 1014.75 1014.85 1014.76 1014.83 1015.07 1015.22 1015.18 1015.35 1015.53 1016.09 1016.67 1017.09 1017.16 1017.25 1017.63 1017.91 1017.81 1017.58 1017.75 1018.16 1018.82 1019.25 1019.87 1020.53 1021.23 1022.02 1022.83 1023.61 1024.55 1025.39 1026.23 1027.01 1027.70 1028.47 1029.60 1030.63 1031.07 1031.63 1032.22
1011.37 1011.97 1012.44 1012.56 1012.60 1012.63 1012.63 1013.03 1013.41 1014.14 1014.62 1014.85 1015.29 1015.18 1014.96 1015.12 1015.22 1015.24 1015.07 1015.25 1015.27 1015.41 1015.94 1016.16 1016.40 1016.96 1017.29 1017.53 1017.73 1017.87 1017.79 1017.73 1017.91 1018.28 1018.66 1019.25 1019.79 1020.49 1021.20 1021.89 1022.70 1023.53 1024.38 1025.20 1026.01 1026.83 1027.62 1028.49 1029.13 1029.77 1030.50 1031.19 1031.60 1031.84
1012.42 1012.72 1012.95 1013.06 1013.10 1013.39 1014.03 1014.33 1014.84 1015.14 1015.51 1015.74 1015.73 1015.69 1015.52 1015.49 1015.61 1015.61 1015.57 1015.43 1015.36 1015.80 1016.14 1016.31 1016.46 1016.88 1017.32 1017.46 1017.57 1017.45 1017.70 1018.20 1018.70 1018.89 1019.24 1019.76 1020.46 1021.18 1021.72 1022.36 1023.18 1023.87 1024.71 1025.57 1026.36 1027.25 1028.06 1028.59 1029.06 1029.44 1029.86 1030.55 1030.99 1031.38
1012.92 1013.30 1013.55 1013.64 1013.75 1014.36 1015.36 1015.70 1015.67 1015.85 1016.17 1016.06 1016.04 1015.98 1015.99 1016.04 1016.08 1016.09 1015.92 1015.74 1015.73 1015.85 1016.23 1016.57 1016.97 1017.15 1017.36 1017.40 1017.42 1017.70 1018.26 1018.54 1018.99 1019.51 1020.01 1020.41 1020.86 1021.54 1022.19 1022.92 1023.58 1024.30 1025.04 1025.79 1026.54 1027.08 1027.66 1028.11 1028.40 1028.88 1029.32 1029.89 1030.28 1030.69
1013.50 1013.85 1014.05 1014.07 1014.06 1014.99 1016.04 1016.53 1016.25 1016.09 1016.40 1016.58 1016.34 1016.46 1016.59 1016.68 1016.61 1016.38 1016.27 1016.23 1016.20 1016.24 1016.53 1016.85 1017.08 1017.16 1017.29 1017.26 1017.47 1017.65 1018.00 1018.50 1019.05 1019.74 1020.46 1021.03 1021.43 1021.96 1022.55 1023.06 1023.75 1024.52 1025.29 1026.01 1026.56 1027.07 1027.58 1028.05 1028.35 1028.67 1029.05 1029.51 1029.97 1030.28
1014.58 1015.06 1014.80 1014.69 1015.29 1015.61 1016.29 1016.63 1016.69 1016.63 1016.64 1016.69 1016.69 1016.77 1017.11 1016.98 1017.02 1016.99 1016.87 1016.73 1016.72 1016.85 1016.98 1016.93 1017.03 1017.10 1017.44 1017.59 1017.69 1017.88 1018.28 1018.60 1018.85 1019.12 1019.63 1020.84 1021.57 1022.03 1022.69 1023.30 1023.92 1024.43 1024.97 1025.64 1026.19 1026.88 1027.26 1027.44 1027.93 1028.51 1029.05 1029.58 1029.99 1030.24
1015.35 1015.36 1015.55 1015.68 1016.31 1016.53 1016.89 1016.93 1016.88 1016.92 1016.96 1016.98 1017.04 1017.20 1017.61 1017.82 1017.74 1017.57 1017.43 1017.57 1017.44 1017.12 1017.03 1017.03 1017.14 1017.32 1017.70 1017.76 1017.87 1018.02 1018.32 1018.84 1019.25 1019.63 1019.93 1020.40 1021.30 1022.00 1022.59 1023.09 1023.71 1024.30 1024.79 1025.22 1025.69 1026.32 1026.90 1027.49 1028.05 1028.61 1029.18 1029.84 1030.29 1030.64
1015.49 1015.77 1016.41 1016.80 1017.38 1017.57 1017.96 1017.28 1017.19 1017.30 1017.35 1017.38 1017.46 1017.61 1018.09 1018.20 1018.15 1018.04 1018.03 1017.88 1017.48 1017.27 1017.34 1017.31 1017.38 1017.46 1017.69 1017.90 1018.02 1018.30 1018.65 1019.02 1019.50 1019.90 1020.33 1020.59 1021.01 1021.59 1022.25 1022.94 1023.42 1023.95 1024.63 1025.25 1025.67 1026.31 1026.98 1027.59 1028.18 1028.80 1029.48 1030.00 1030.47 1031.13
1015.91 1016.74 1017.55 1018.13 1018.36 1018.66 1018.34 1017.84 1017.61 1017.75 1017.90 1018.05 1018.18 1018.46 1018.43 1018.30 1018.24 1018.43 1018.49 1017.99 1017.49 1017.78 1017.71 1017.74 1017.68 1017.81 1018.07 1018.22 1018.43 1018.77 1019.04 1019.31 1019.80 1020.31 1020.64 1020.85 1021.33 1021.92 1022.30 1022.84 1023.46 1023.88 1024.20 1024.85 1025.60 1026.39 1027.15 1027.77 1028.38 1029.09 1029.70 1030.28 1030.90 1031.46
1017.10 1018.24 1018.67 1018.90 1018.84 1018.85 1018.71 1018.49 1018.34 1018.49 1018.69 1018.67 1018.88 1018.75 1018.65 1018.52 1018.75 1019.01 1018.68 1018.06 1018.04 1018.09 1018.12 1018.09 1017.89 1017.84 1017.93 1018.24 1018.64 1019.01 1019.33 1019.52 1019.89 1020.44 1020.94 1021.06 1021.49 1022.12 1022.68 1023.15 1023.63 1023.98 1024.33 1024.89 1025.79 1026.50 1027.32 1028.01 1028.64 1029.32 1029.98 1030.56 1031.21 1031.88
1017.97 1018.57 1018.96 1018.72 1018.84 1018.96 1018.99 1019.06 1019.02 1018.96 1019.09 1019.17 1019.25 1019.09 1019.03 1019.07 1019.38 1019.19 1018.65 1018.51 1018.51 1018.34 1018.43 1018.22 1017.98 1017.90 1018.00 1018.21 1018.54 1019.04 1019.40 1019.72 1020.17 1020.70 1021.17 1021.24 1021.49 1021.80 1022.44 1023.04 1023.67 1024.39 1024.55 1024.65 1025.44 1026.45 1027.37 1028.17 1028.88 1029.67 1030.47 1031.10 1031.60 1032.27
1018.56 1018.74 1018.63 1018.43 1018.42 1018.67 1019.09 1019.22 1019.19 1019.31 1019.34 1019.46 1019.25 1019.61 1019.63 1019.75 1019.47 1018.81 1018.86 1019.06 1018.98 1018.81 1018.65 1018.35 1018.16 1018.05 1018.17 1018.69 1019.14 1019.44 1019.70 1020.02 1020.49 1020.99 1021.34 1021.68 1021.97 1022.13 1022.38 1022.78 1023.31 1023.75 1024.45 1024.90 1025.51 1026.13 1027.08 1028.17 1029.18 1030.09 1031.03 1031.82 1032.44 1032.65
1018.28 1018.52 1018.75 1018.46 1018.45 1018.43 1018.92 1019.53 1019.47 1019.26 1018.98 1018.72 1019.12 1019.76 1019.73 1019.25 1019.13 1019.17 1019.40 1019.51 1019.48 1019.12 1018.85 1018.76 1018.67 1018.52 1018.68 1019.22 1019.66 1020.09 1020.68 1021.10 1021.42 1021.73 1022.09 1022.69 1023.11 1023.23 1023.35 1023.53 1023.78 1024.18 1024.75 1025.27 1025.85 1026.52 1027.33 1028.27 1029.43 1030.55 1031.50 1032.37 1033.18 1033.73
1018.33 1018.44 1018.54 1018.71 1018.71 1018.71 1018.72 1018.91 1018.96 1018.73 1018.63 1018.76 1019.26 1019.30 1019.35 1019.33 1019.70 1019.88 1019.93 1019.86 1019.70 1019.29 1019.33 1019.31 1019.49 1019.55 1019.79 1020.10 1020.43 1020.64 1020.87 1021.03 1021.17 1021.73 1022.28 1023.12 1023.79 1024.50 1024.57 1024.60 1024.87 1025.26 1025.71 1026.24 1026.88 1027.35 1028.10 1029.04 1030.22 1031.41 1032.45 1033.25 1034.16 1034.69
1018.28 1018.35 1018.97 1019.00 1019.23 1019.04 1018.69 1018.95 1019.19 1019.19 1019.11 1019.20 1019.37 1019.67 1019.90 1019.95 1020.07 1020.50 1020.32 1020.14 1019.93 1019.74 1019.63 1019.60 1019.79 1019.94 1020.34 1020.49 1020.93 1021.29 1021.44 1021.32 1021.23 1021.42 1022.01 1022.92 1023.70 1024.70 1025.01 1025.31 1025.70 1026.18 1026.62 1027.15 1028.06 1029.06 1029.92 1030.89 1031.75 1033.05 1033.80 1034.29 1034.72 1035.25
1017.85 1018.42 1018.97 1019.03 1019.22 1019.32 1019.52 1019.75 1019.83 1019.91 1020.10 1020.03 1020.22 1020.51 1020.83 1020.90 1020.46 1020.57 1020.70 1020.66 1020.43 1020.27 1020.18 1020.18 1020.25 1020.29 1020.51 1020.74 1020.86 1021.10 1021.64 1021.88 1021.73 1021.84 1022.18 1022.99 1024.03 1024.83 1025.46 1026.00 1026.44 1026.91 1027.51 1028.19 1029.01 1029.82 1030.74 1031.71 1032.56 1033.45 1034.23 1034.81 1035.35 1035.80
1018.09 1018.41 1018.84 1019.44 1019.47 1019.71 1019.85 1020.24 1020.36 1020.49 1020.82 1020.86 1020.92 1021.26 1021.35 1021.54 1021.30 1021.06 1021.05 1020.90 1020.68 1020.56 1020.55 1020.50 1020.48 1020.62 1020.61 1020.77 1021.02 1021.18 1021.22 1021.98 1022.40 1022.75 1023.05 1023.71 1024.68 1025.54 1026.21 1026.77 1027.27 1027.76 1028.44 1029.25 1030.05 1030.87 1031.61 1032.30 1033.24 1034.07 1034.84 1035.49 1036.04 1036.55
1018.39 1018.59 1018.86 1019.15 1019.51 1019.72 1019.88 1020.11 1020.37 1020.67 1020.98 1021.28 1021.26 1021.46 1021.56 1021.61 1021.42 1021.52 1021.38 1021.25 1021.08 1020.73 1020.73 1020.81 1020.92 1021.01 1021.20 1021.38 1021.67 1022.05 1022.35 1022.73 1023.09 1023.51 1024.08 1024.73 1025.44 1026.20 1026.93 1027.53 1028.07 1028.72 1029.40 1030.27 1031.13 1031.86 1032.58 1033.29 1034.02 1034.76 1035.41 1036.04 1036.69 1037.19
Wind_Speed
26 27 26 28 27 26 27 27 27 26 25 24 21 19 17 15 8 6 1 4 5 5 2 4 3 5 4 2 4 4 3 1 1 2 1 1 1 1 1 2 2 2 1 1 1 2 4 7 2 3 7 9 10 10
25 26 26 25 25 25 24 24 24 24 24 22 20 17 15 13 11 6 5 2 4 7 4 2 4 3 2 5 6 2 3 3 3 3 2 2 1 1 2 2 2 1 3 2 4 3 4 5 9 6 7 12 9 11
24 26 26 26 25 24 23 23 22 22 21 21 20 19 17 14 12 9 4 2 5 4 4 5 4 3 3 4 2 5 1 4 3 1 3 2 3 1 0 1 3 3 0 4 5 4 6 6 8 8 8 11 11 11
22 25 24 24 24 23 22 22 22 21 20 20 20 20 20 19 17 11 5 2 4 5 5 1 1 4 2 3 5 4 6 4 3 1 2 2 2 2 1 2 1 1 0 7 5 6 8 6 8 10 12 12 13 10
23 23 23 23 22 22 21 21 21 20 19 19 20 22 22 23 22 13 6 4 3 5 5 3 0 5 3 4 6 5 5 3 2 2 2 2 2 2 1 1 2 1 3 3 2 9 4 7 8 10 12 12 12 13
21 21 22 21 21 20 20 20 20 19 18 18 18 16 12 10 5 5 6 4 5 3 5 4 1 3 3 5 6 4 3 3 2 2 2 1 2 2 2 1 2 1 2 1 4 5 7 13 11 10 12 11 11 11
20 20 20 20 20 19 19 18 18 18 17 16 15 17 18 18 9 6 3 2 3 2 5 4 2 2 2 3 2 2 3 2 2 2 1 1 1 3 2 2 5 5 8 12 14 17 12 13 8 11 12 12 13 12
18 20 19 19 20 19 18 17 17 16 16 16 17 15 14 13 9 6 5 6 2 5 4 4 2 2 4 2 2 2 2 2 3 1 0 1 1 1 1 3 7 9 13 11 3 2 10 13 15 13 12 12 12 11
17 18 18 18 18 17 16 15 15 15 15 13 9 7 6 7 4 1 6 5 3 5 4 3 5 4 2 2 1 2 1 2 1 1 1 2 1 3 3 13 12 14 7 10 10 13 16 16 14 13 12 11 11 10
17 17 18 17 16 16 15 14 15 14 9 6 6 5 4 2 5 3 6 5 6 4 4 3 1 4 2 0 2 1 2 1 1 1 1 0 1 2 3 10 11 12 11 14 15 14 14 14 14 13 11 9 10 9
18 19 18 17 16 15 16 15 11 7 8 4 4 3 1 3 2 3 4 4 2 3 2 1 0 3 1 2 3 1 2 1 0 1 2 1 2 3 7 10 9 9 11 10 6 10 10 13 13 12 11 11 11 11
18 18 18 17 16 17 15 10 8 5 1 2 4 3 2 3 3 5 3 1 2 2 1 3 2 1 1 0 2 1 2 0 2 1 2 2 2 7 11 10 9 10 11 8 10 12 12 12 11 11 11 11 9 8
17 17 17 16 17 15 16 16 14 9 3 2 4 4 3 3 5 4 2 2 1 2 3 2 2 1 1 2 3 2 2 2 1 1 2 0 4 9 10 9 9 9 9 9 11 11 12 11 10 8 9 7 9 8
18 17 16 16 15 16 13 10 9 6 4 4 4 5 3 3 2 2 1 3 1 2 3 2 3 2 1 3 1 3 0 0 1 1 3 1 6 7 7 7 10 9 9 10 10 10 10 9 7 6 8 8 9 8
18 16 15 14 15 13 11 10 7 4 3 4 2 4 2 1 0 0 1 2 1 2 2 3 3 3 3 3 1 2 2 2 4 3 2 1 7 8 8 7 8 9 8 8 9 9 9 9 9 8 5 6 7 7
18 11 5 11 12 10 8 7 5 3 3 3 5 3 1 2 2 2 3 3 1 2 1 3 3 3 2 1 2 2 3 3 3 2 1 3 5 6 8 7 7 7 8 8 7 8 9 9 10 10 7 6 6 7
12 3 10 12 11 12 13 4 4 5 3 3 2 2 2 3 2 2 2 2 0 3 2 1 4 2 2 2 1 3 4 2 2 1 1 4 6 7 7 7 8 8 8 8 7 8 6 7 10 10 9 7 7 7
4 10 12 7 5 5 4 4 3 3 4 3 3 2 2 2 2 2 2 3 2 2 3 2 3 3 3 3 2 3 2 1 0 0 2 4 6 5 6 9 8 9 9 8 8 8 8 9 9 7 8 9 7 6
9 7 10 10 5 4 4 5 3 3 3 1 1 1 2 1 1 0 1 2 2 2 4 1 2 2 2 3 2 1 2 4 3 2 2 2 6 7 7 7 8 8 9 10 11 8 8 9 7 7 7 7 5 5
15 10 12 12 6 3 4 3 2 2 2 1 1 2 2 1 2 2 2 2 1 1 1 1 3 3 3 2 3 1 2 4 5 4 2 2 4 8 8 9 8 9 8 8 7 9 7 6 5 6 6 6 5 4
7 3 7 5 4 4 3 2 2 2 1 2 1 1 1 2 2 2 2 2 1 2 2 3 3 2 1 0 1 2 3 5 4 3 4 5 5 6 7 6 8 7 8 8 8 7 7 7 6 6 5 4 3 3
2 1 3 4 4 3 3 2 2 1 1 1 2 1 2 1 1 1 1 2 3 3 3 2 1 2 2 2 2 2 3 5 4 4 6 10 7 7 7 8 8 7 7 8 8 8 7 5 5 5 6 5 4 4
4 3 3 4 5 5 1 2 1 1 1 1 0 0 1 1 2 1 1 3 4 1 1 1 1 2 3 2 4 4 4 6 4 4 4 3 5 6 7 7 7 8 7 6 6 7 6 6 5 6 6 6 5 4
3 4 4 3 3 1 2 1 1 2 1 1 1 1 2 1 1 1 3 3 2 2 1 1 1 3 2 2 1 2 2 3 4 3 3 6 6 5 6 6 6 5 5 7 7 6 6 6 7 7 6 6 4 5
4 2 5 3 1 1 0 3 2 3 2 3 2 3 2 1 1 2 3 4 2 2 2 1 1 1 2 2 2 2 1 4 5 5 2 4 6 6 5 4 4 4 6 8 6 7 6 6 7 7 6 6 7 6
2 4 5 6 3 3 4 3 3 5 3 2 4 2 1 2 1 6 4 2 1 1 0 0 1 1 1 0 2 3 3 3 5 4 3 5 5 6 7 7 6 4 3 6 9 9 9 8 8 9 7 6 7 8
1 4 2 3 2 3 1 1 1 2 3 4 3 3 3 3 6 5 1 1 1 1 2 3 3 1 1 3 3 4 4 4 3 4 5 5 4 2 5 7 7 4 7 8 8 10 12 10 9 8 8 5 4 4
5 3 5 4 3 2 3 2 4 5 4 2 4 4 6 8 5 2 2 1 2 3 2 3 4 3 3 4 5 6 6 7 8 8 8 8 7 5 5 5 6 9 6 6 8 8 9 9 10 10 9 8 6 3
3 2 3 3 1 2 4 6 5 3 2 3 4 4 4 1 1 1 1 1 3 2 2 2 3 4 5 5 4 4 6 6 10 8 6 5 3 3 3 5 7 7 7 9 12 10 12 10 10 10 10 9 7 6
5 3 3 1 5 6 2 1 1 1 0 1 1 0 1 2 2 1 1 2 1 1 1 1 3 3 3 4 5 4 3 1 1 3 6 6 5 6 5 7 8 7 8 11 12 13 16 13 13 7 8 6 4 5
4 3 3 1 4 2 2 1 1 2 3 1 2 1 2 3 3 0 1 1 1 1 3 3 2 3 5 5 5 6 3 2 3 6 7 9 9 7 7 7 7 7 8 10 9 9 10 9 8 9 8 8 6 6
2 4 4 3 3 3 2 2 1 0 2 1 2 2 3 2 2 1 2 2 1 2 1 3 3 3 3 4 3 3 5 6 6 7 12 10 9 9 8 7 7 8 9 9 9 9 10 10 8 8 8 8 7 6
2 2 2 2 1 1 1 2 1 2 2 1 3 2 2 2 4 2 2 2 2 1 2 3 3 4 6 6 7 7 8 8 11 13 15 15 14 12 8 7 8 9 11 9 9 9 10 12 9 9 8 8 6 5
Wind_Direction
105 103 98 98 97 95 97 99 102 104 107 110 113 116 122 125 117 84 97 0 109 87 48 41 108 127 101 119 147 152 124 65 98 127 179 139 117 59 118 64 18 53 303 71 300 145 178 357 196 259 105 104 110 96
103 107 102 98 95 96 96 95 95 96 96 98 99 99 98 98 93 97 80 345 29 79 104 48 64 48 85 156 128 110 116 139 166 120 149 125 98 120 139 142 33 148 10 115 3 48 52 17 69 93 120 129 121 117
108 110 108 104 104 101 98 96 94 94 93 91 91 90 89 89 83 96 109 22 64 94 64 48 30 18 71 74 134 117 174 151 178 207 124 111 102 299 156 108 127 96 1 91 171 112 98 79 77 82 108 114 119 126
108 103 103 102 100 101 101 98 94 93 91 89 89 87 85 88 80 81 77 340 71 102 100 64 299 44 30 56 60 68 117 85 97 86 96 87 106 358 131 102 106 38 179 125 90 119 114 95 107 116 110 112 112 110
105 101 102 105 105 101 99 97 95 93 92 90 89 90 89 87 87 86 86 39 59 113 132 132 131 13 79 90 81 71 93 111 101 94 77 93 106 145 55 118 137 199 148 182 195 168 114 129 138 134 129 129 128 124
103 102 102 104 102 102 101 100 96 93 91 90 89 88 75 65 83 59 50 357 12 45 103 97 311 27 77 83 73 64 69 77 77 87 92 132 96 120 140 182 141 102 94 120 142 123 115 126 132 137 132 132 125 119
100 104 105 104 104 103 103 101 98 95 92 87 87 83 77 72 69 62 119 199 353 50 87 86 77 21 3 75 49 43 37 66 61 92 88 110 115 89 121 186 143 131 109 107 113 115 116 152 148 139 133 127 116 110
105 105 107 107 106 106 105 102 99 97 96 94 86 87 83 81 69 35 9 20 54 87 64 102 81 76 12 63 82 352 64 36 33 77 96 84 138 75 152 169 135 130 125 122 129 166 144 131 134 133 134 135 124 120
108 105 104 106 108 108 108 104 103 101 96 83 78 87 52 39 48 318 323 30 42 93 101 82 138 148 4 66 63 67 29 73 334 89 136 190 133 235 171 160 157 155 159 141 121 121 133 138 140 143 145 141 127 125
110 112 110 113 112 104 99 101 100 96 75 56 41 43 46 20 312 342 7 30 21 358 35 81 283 117 94 298 85 100 7 97 187 95 139 297 238 112 147 162 162 169 140 143 136 149 149 149 152 153 152 140 133 132
109 109 114 109 103 104 106 99 91 68 40 41 49 56 121 296 52 40 51 53 337 61 33 97 127 117 14 115 118 323 127 6 55 116 250 211 253 174 158 150 156 155 154 149 140 148 160 156 151 147 139 134 130 133
108 107 106 103 104 104 96 69 56 55 63 89 113 102 50 31 45 74 54 36 30 106 132 126 145 97 120 88 102 152 94 130 197 292 242 251 123 146 155 154 155 151 154 137 137 138 141 142 143 136 142 131 126 124
108 107 107 104 103 93 85 80 73 82 62 39 55 70 43 0 56 87 140 98 110 177 170 147 100 72 89 59 68 89 89 216 329 194 266 324 151 154 153 148 148 150 140 123 123 123 125 122 118 134 125 108 119 116
102 102 108 106 100 96 86 69 59 45 51 56 63 66 77 39 60 174 163 174 203 141 137 117 88 81 76 65 95 87 161 20 50 264 242 212 177 148 138 137 142 143 138 133 127 125 121 119 112 102 113 128 131 132
110 104 92 99 102 92 83 72 53 53 53 56 51 65 62 259 336 219 210 136 60 129 120 83 63 46 32 72 62 100 57 254 213 233 240 230 154 144 142 139 133 133 132 130 133 129 129 130 125 114 117 125 115 117
110 86 95 107 93 72 54 41 28 63 54 43 45 86 50 54 24 39 42 75 151 101 77 56 92 76 58 145 177 196 140 236 256 224 249 170 147 144 144 141 130 127 129 127 124 132 134 135 137 136 132 128 133 152
72 66 137 106 86 60 39 61 31 43 68 44 28 354 76 74 59 44 27 41 68 67 78 85 75 158 128 72 261 192 208 229 220 246 225 183 163 153 135 123 129 128 126 128 126 127 117 112 120 131 143 161 169 170
67 131 127 97 58 42 26 31 63 53 59 29 60 10 38 29 62 28 25 1 52 106 156 98 143 148 179 178 257 237 213 150 119 297 133 148 143 131 141 138 134 138 137 130 128 126 129 141 154 161 149 158 156 172
128 116 89 61 73 83 59 18 26 78 48 20 2 13 49 58 54 320 6 16 59 92 114 99 85 200 221 211 221 182 227 206 172 137 79 89 140 143 129 119 124 130 136 144 152 156 160 169 167 160 155 159 175 184
120 83 49 36 45 75 67 18 344 71 78 323 10 40 65 49 316 358 20 14 17 37 10 180 207 211 191 219 199 197 175 158 141 131 127 121 138 142 153 154 155 147 140 146 146 150 154 159 164 161 159 162 168 173
59 34 1 43 34 50 99 103 62 18 58 84 81 45 37 360 39 24 345 341 10 220 246 219 223 239 209 200 166 127 151 164 180 172 164 158 168 153 149 142 145 150 155 161 162 166 170 174 162 160 163 168 148 126
62 50 45 13 56 30 70 28 33 37 37 77 119 91 83 129 144 250 355 36 247 246 205 193 220 147 161 209 169 151 161 141 117 97 83 120 150 161 167 161 156 161 167 169 168 168 173 161 151 145 141 133 132 117
87 46 48 35 55 43 276 313 95 105 90 165 107 144 329 313 237 219 245 231 252 249 289 237 140 101 122 110 92 88 134 152 151 147 147 138 134 134 144 160 161 157 163 175 166 159 159 148 137 137 129 130 127 109
38 53 71 72 73 302 301 356 121 95 71 67 96 277 256 233 139 22 252 251 250 323 24 9 139 96 72 70 95 145 124 130 118 110 139 137 140 149 155 157 162 168 166 150 152 144 143 147 140 144 144 134 130 131
76 307 88 359 92 100 141 350 36 78 181 162 174 295 194 159 172 253 233 259 354 0 344 332 112 104 159 144 141 147 162 156 151 143 161 136 122 121 119 123 135 153 146 135 141 143 140 141 142 142 144 142 141 134
115 260 136 184 163 187 197 181 196 191 148 162 229 291 50 152 232 248 236 204 202 31 334 272 257 196 194 44 138 160 160 143 126 119 149 158 154 148 145 147 150 160 175 148 139 145 146 148 142 138 131 124 122 128
324 285 237 206 160 134 60 320 186 121 164 200 210 164 104 193 233 249 244 246 247 354 312 314 295 243 162 129 89 70 88 84 79 104 97 85 78 116 150 154 164 150 152 145 143 151 151 150 143 135 124 113 120 138
214 181 181 214 200 174 159 142 171 209 223 191 109 178 187 200 236 207 190 227 273 311 21 22 12 28 93 102 115 114 92 101 100 102 95 68 50 47 60 74 82 108 108 118 128 127 134 133 135 137 135 127 117 89
227 240 122 181 191 203 210 193 217 222 182 152 170 216 234 239 234 212 254 289 293 241 123 93 66 80 77 78 73 97 132 147 142 130 113 123 125 61 51 89 92 90 95 90 84 97 108 112 118 119 116 114 108 93
243 161 122 199 169 214 219 156 197 80 33 99 114 83 270 262 245 246 295 336 332 223 65 121 142 143 144 129 126 102 39 23 74 136 149 161 152 134 124 110 105 103 103 102 101 98 93 96 101 96 104 110 110 106
134 108 74 139 221 259 246 257 359 46 31 46 0 221 246 312 300 331 310 318 297 160 136 135 133 149 149 157 153 140 127 22 77 95 102 113 121 119 113 106 105 106 107 109 112 114 116 110 114 117 114 108 101 104
167 179 157 211 277 288 35 97 154 162 335 22 287 356 353 19 280 310 356 350 158 179 208 171 156 172 152 122 93 65 90 115 110 115 120 116 111 110 107 105 103 105 105 104 107 114 116 119 122 121 120 119 118 113
81 82 114 131 44 331 282 162 186 301 346 278 276 206 223 200 246 268 327 10 282 266 163 126 95 84 80 85 98 95 88 93 101 103 104 105 109 109 105 103 103 105 106 106 109 116 116 118 116 120 118 122 122 118